CW7536 Weather Reports


Display with metric or nautical units.
time (UTC)temp
F
wind
direction
speed
MPH
gust
MPH
rain 1hr
in
rain 24hr
in
rain mn
in
humidity
%
barometer
mb
20260901173058 77 239 1.0 3.0 0.00 0.00 0.00 1 1014.2
20260901171553 76 46 0.0 1.0 0.00 0.00 0.00 1 1014.7
20260901170051 76 68 0.0 1.0 0.00 0.00 0.00 1 1015.2
20260901164545 75 119 0.0 4.0 0.00 0.00 0.00 1 1015.0
20260901163041 75 240 1.0 5.0 0.00 0.00 0.00 1 1015.0
20260901161546 74 233 0.0 2.0 0.00 0.00 0.00 1 1015.1
20260901160050 74 235 0.0 2.0 0.00 0.00 0.00 1 1015.6
20260901154533 74 101 0.0 1.0 0.00 0.00 0.00 1 1015.6
20260901153026 75 101 0.0 1.0 0.00 0.00 0.00 1 1016.2
20260901151522 75 168 0.0 0.0 0.00 0.00 0.00 1 1016.2
20260901150020 75 75 0.0 2.0 0.00 0.00 0.00 1 1016.5
20260901144510 75 34 0.0 2.0 0.00 0.00 0.00 1 1016.3
20260901143006 74 226 0.0 0.0 0.00 0.00 0.00 1 1016.2
20260901141501 74 227 0.0 1.0 0.00 0.00 0.00 1 1016.0
20260901140058 74 231 0.0 1.0 0.00 0.00 0.00 1 1015.7
20260901134554 73 236 0.0 1.0 0.00 0.00 0.00 1 1015.5
20260901133052 73 233 0.0 2.0 0.00 0.00 0.00 1 1015.7
20260901131549 73 242 0.0 2.0 0.00 0.00 0.00 1 1015.9
20260901130040 72 249 0.0 1.0 0.00 0.00 0.00 1 1015.7
20260901124537 72 249 0.0 1.0 0.00 0.00 0.00 1 1016.0
20260901123044 72 229 0.0 1.0 0.00 0.00 0.00 1 1016.1
20260901121528 71 248 0.0 3.0 0.00 0.00 0.00 1 1015.9
20260901120034 71 251 0.0 2.0 0.00 0.00 0.00 1 1015.8
20260901114517 70 184 0.0 0.0 0.00 0.00 0.00 1 1015.6
20260901113014 70 184 0.0 1.0 0.00 0.00 0.00 1 1015.8
20260901111509 70 221 0.0 1.0 0.00 0.00 0.00 1 1016.0
20260901110005 70 262 0.0 0.0 0.00 0.00 0.00 1 1016.2
20260901104600 70 262 0.0 0.0 0.00 0.00 0.00 1 1016.2
20260901103056 70 262 0.0 0.0 0.00 0.00 0.00 1 1016.2
20260901101553 70 262 0.0 0.0 0.00 0.00 0.00 1 1016.0
20260901100053 70 262 0.0 0.0 0.00 0.00 0.00 1 1015.8
20260901094543 70 262 0.0 0.0 0.00 0.00 0.00 1 1016.0
20260901093039 70 262 0.0 0.0 0.00 0.00 0.00 1 1015.8
20260901091535 70 262 0.0 0.0 0.00 0.00 0.00 1 1015.9
20260901090029 70 261 0.0 0.0 0.00 0.00 0.00 1 1015.9
20260901084526 70 261 0.0 0.0 0.00 0.00 0.00 1 1016.2
20260901083024 70 261 0.0 0.0 0.00 0.00 0.00 1 1016.4
20260901081518 70 261 0.0 0.0 0.00 0.00 0.00 1 1016.3
20260901080016 70 261 0.0 0.0 0.00 0.00 0.00 1 1016.3
20260901074508 70 261 0.0 0.0 0.00 0.00 0.00 1 1016.4
20260901073004 70 261 0.0 0.0 0.00 0.00 0.00 1 1016.5
20260901071604 70 261 0.0 0.0 0.00 0.00 0.00 1 1016.5
20260901070100 71 261 0.0 0.0 0.00 0.00 0.00 1 1016.5
20260901064551 71 261 0.0 1.0 0.00 0.00 0.00 1 1016.6
20260901063103 71 255 0.0 2.0 0.00 0.00 0.00 1 1016.8
20260901061554 71 231 0.0 1.0 0.00 0.00 0.00 1 1016.9
20260901060037 71 255 0.0 2.0 0.00 0.00 0.00 1 1017.1
20260901054534 72 158 0.0 1.0 0.00 0.00 0.00 1 1017.1
20260901053030 72 266 0.0 2.0 0.00 0.00 0.00 1 1017.3
20260901051534 72 246 0.0 2.0 0.00 0.00 0.00 1 1017.4
20260901050020 72 233 0.0 1.0 0.00 0.00 0.00 1 1017.6
20260901044515 72 255 0.0 1.0 0.00 0.00 0.00 1 1017.6
20260901043018 72 252 1.0 4.0 0.00 0.00 0.00 1 1017.6
20260901041507 72 220 1.0 3.0 0.00 0.00 0.00 1 1017.5
20260901040003 72 271 1.0 2.0 0.00 0.00 0.00 1 1017.5
20260901034558 72 211 0.0 2.0 0.00 0.00 0.00 1 1017.6
20260901033054 72 240 0.0 3.0 0.00 0.00 0.00 1 1017.7
20260901031556 72 243 0.0 2.0 0.00 0.00 0.00 1 1017.9
20260901030045 72 241 0.0 2.0 0.00 0.00 0.00 1 1017.9
20260901024541 72 257 0.0 0.0 0.00 0.00 0.00 1 1018.0
20260901023041 72 257 0.0 0.0 0.00 0.00 0.00 1 1018.2
20260901021534 72 257 0.0 1.0 0.00 0.00 0.00 1 1018.4
20260901020027 72 257 0.0 0.0 0.00 0.00 0.00 1 1018.3
20260901014523 72 257 0.0 0.0 0.00 0.00 0.00 1 1018.3
20260901013021 73 257 0.0 1.0 0.00 0.00 0.00 1 1018.4
20260901011521 73 257 0.0 0.0 0.00 0.00 0.00 1 1018.4
20260901010017 73 257 0.0 0.0 0.00 0.00 0.00 1 1018.2
20260901004511 72 257 0.0 1.0 0.00 0.00 0.00 1 1018.2
20260901003009 72 261 0.0 0.0 0.00 0.00 0.00 1 1018.2
20260901001502 72 261 0.0 0.0 0.00 0.00 0.00 1 1018.1
20260901000112 73 261 0.0 0.0 0.00 0.00 0.00 1 1018.0
20260831234558 73 261 0.0 0.0 0.00 0.00 0.00 1 1018.2
20260831233050 73 261 0.0 1.0 0.00 0.00 0.00 1 1018.1
20260831231551 74 261 0.0 1.0 0.00 0.00 0.00 1 1018.3
20260831230041 74 255 0.0 2.0 0.00 0.00 0.00 1 1018.3
20260831224536 74 207 0.0 2.0 0.00 0.00 0.00 1 1018.4
20260831223036 75 176 0.0 2.0 0.00 0.00 0.00 1 1018.3
20260831221528 75 226 0.0 2.0 0.00 0.00 0.00 1 1018.3
20260831220024 75 241 0.0 2.0 0.00 0.00 0.00 1 1018.5
20260831214518 75 241 1.0 3.0 0.00 0.00 0.00 3 1018.5
20260831213014 76 198 0.0 2.0 0.00 0.00 0.00 5 1018.5
20260831211510 76 215 0.0 1.0 0.00 0.00 0.00 3 1018.5
20260831210005 76 228 0.0 2.0 0.00 0.00 0.00 1 1018.7
20260831204502 75 254 0.0 2.0 0.00 0.00 0.00 1 1018.7
20260831203059 75 231 0.0 2.0 0.00 0.00 0.00 1 1018.7
20260831201554 74 240 0.0 3.0 0.00 0.00 0.00 1 1018.8
20260831200050 74 220 0.0 1.0 0.00 0.00 0.00 1 1019.0
20260831194615 74 209 0.0 1.0 0.00 0.00 0.00 1 1019.3
20260831193043 75 257 0.0 2.0 0.00 0.00 0.00 1 1019.5
20260831191538 75 219 0.0 2.0 0.00 0.00 0.00 3 1019.6
20260831190033 76 238 0.0 3.0 0.00 0.00 0.00 5 1019.6
20260831184529 76 266 0.0 3.0 0.00 0.00 0.00 6 1019.6
20260831183025 77 230 0.0 3.0 0.00 0.00 0.00 12 1019.5
20260831181521 77 226 0.0 3.0 0.00 0.00 0.00 15 1019.7
20260831180018 78 158 0.0 1.0 0.00 0.00 0.00 16 1019.7
20260831174522 79 74 0.0 2.0 0.00 0.00 0.00 18 1019.8